Zurück zum Katalog

CZ-6A DEB

AktivSSO
NORAD 56657·DEBRIS·🇨🇳 China

Gestartet Nov 11, 2022 von Taiyuan Satellite Launch Center

Loading…

Nächste Überflüge (nächste 24 Stunden)

TLE

AlterndSource: Space-Track

Epoche: Sep 9, 2026, 15:25 UTC

1 56657U 22151AGH 26252.64260893  .00000146  00000-0  15583-3 0  9991
2 56657  98.9607 196.7604 0176359 272.2185  85.8786 13.82057460175327

Verfolge CZ-6A DEB in Echtzeit mit AllMySat

Download on the App Store